EJA966 KBOI-KHIO

Flight info

Callsign EJA966
Flight time 1h 1m
Altitude 32000
Route SAILL BUEEL IMB ELKES NNIKE
Aircraft C750/M-SBDE3FGHRWXY/S

Departure

Time 2026-04-21 22:22
Airport Boise Air Terminal/Gowen Field (KBOI)

Arrival

Time 2026-04-21 23:24
Airport Portland Hillsboro Airport (KHIO)
Time Latitude Longitude Altitude Speed Heading
2026-04-21 21:49 43.56951 -116.22746 2875 ft 0 kts
2026-04-21 22:15 43.56958 -116.22745 2875 ft 4 kts
2026-04-21 22:15 43.56969 -116.22789 2875 ft 9 kts 246°
2026-04-21 22:15 43.56904 -116.22845 2875 ft 12 kts 207°
2026-04-21 22:15 43.56877 -116.22930 2875 ft 11 kts 293°
2026-04-21 22:16 43.56917 -116.23034 2875 ft 15 kts 296°
2026-04-21 22:16 43.56972 -116.23192 2875 ft 21 kts 294°
2026-04-21 22:16 43.57042 -116.23398 2876 ft 26 kts 295°
2026-04-21 22:16 43.57107 -116.23598 2876 ft 12 kts 289°
2026-04-21 22:17 43.57111 -116.23616 2876 ft 0 kts 282°
2026-04-21 22:17 43.57111 -116.23617 2876 ft 1 kts 282°
2026-04-21 22:17 43.57111 -116.23671 2876 ft 10 kts 264°
2026-04-21 22:17 43.57099 -116.23817 2876 ft 20 kts 262°
2026-04-21 22:18 43.57085 -116.23943 2876 ft 7 kts 257°
2026-04-21 22:18 43.57084 -116.23950 2876 ft 0 kts 255°
2026-04-21 22:19 43.57084 -116.23951 2876 ft 1 kts 255°
2026-04-21 22:19 43.57075 -116.24001 2876 ft 9 kts 257°
2026-04-21 22:19 43.57059 -116.24088 2876 ft 10 kts 254°
2026-04-21 22:20 43.57054 -116.24118 2877 ft 0 kts 256°
2026-04-21 22:21 43.57053 -116.24119 2877 ft 1 kts 256°
2026-04-21 22:21 43.57042 -116.24171 2877 ft 10 kts 250°
2026-04-21 22:21 43.56981 -116.24191 2876 ft 13 kts 116°
2026-04-21 22:22 43.56908 -116.23985 2878 ft 40 kts 115°
2026-04-21 22:22 43.56699 -116.23374 2876 ft 102 kts 115°
2026-04-21 22:22 43.56334 -116.22255 2991 ft 148 kts 114°
2026-04-21 22:22 43.55888 -116.20841 3472 ft 174 kts 117°
2026-04-21 22:23 43.55375 -116.19219 4030 ft 195 kts 114°
2026-04-21 22:23 43.54850 -116.17422 4780 ft 207 kts 114°
2026-04-21 22:23 43.54295 -116.15580 5704 ft 210 kts 115°
2026-04-21 22:23 43.53743 -116.13675 6502 ft 223 kts 115°
2026-04-21 22:24 43.53141 -116.11573 6989 ft 252 kts 115°
2026-04-21 22:24 43.52452 -116.09181 7017 ft 276 kts 114°
2026-04-21 22:24 43.51742 -116.06716 7064 ft 275 kts 115°
2026-04-21 22:24 43.50868 -116.04438 7234 ft 267 kts 133°
2026-04-21 22:25 43.49356 -116.03033 7227 ft 265 kts 162°
2026-04-21 22:25 43.47538 -116.02938 7286 ft 265 kts 192°
2026-04-21 22:25 43.45892 -116.04017 7327 ft 271 kts 217°
2026-04-21 22:25 43.44754 -116.06092 7383 ft 278 kts 243°
2026-04-21 22:26 43.44465 -116.08740 7476 ft 287 kts 272°
2026-04-21 22:26 43.45015 -116.11398 7536 ft 291 kts 287°
2026-04-21 22:26 43.45770 -116.13985 7578 ft 292 kts 289°
2026-04-21 22:26 43.46530 -116.16575 7621 ft 292 kts 287°
2026-04-21 22:27 43.47255 -116.19187 7643 ft 293 kts 288°
2026-04-21 22:27 43.47997 -116.21807 7683 ft 294 kts 288°
2026-04-21 22:27 43.48737 -116.24451 8114 ft 296 kts 288°
2026-04-21 22:27 43.49471 -116.27089 9425 ft 294 kts 286°
2026-04-21 22:28 43.50208 -116.29755 10626 ft 307 kts 287°
2026-04-21 22:28 43.51008 -116.32616 11520 ft 328 kts 287°
2026-04-21 22:28 43.51835 -116.35559 12956 ft 332 kts 287°
2026-04-21 22:28 43.52670 -116.38560 14180 ft 339 kts 287°
2026-04-21 22:29 43.53520 -116.41627 15390 ft 345 kts 287°
2026-04-21 22:29 43.54379 -116.44739 16571 ft 351 kts 287°
2026-04-21 22:29 43.55256 -116.47916 17739 ft 358 kts 287°
2026-04-21 22:29 43.56155 -116.51144 18758 ft 363 kts 286°
2026-04-21 22:30 43.57065 -116.54418 19721 ft 368 kts 285°
2026-04-21 22:30 43.57979 -116.57739 20615 ft 373 kts 285°
2026-04-21 22:30 43.58904 -116.61105 21502 ft 378 kts 285°
2026-04-21 22:30 43.59841 -116.64514 22387 ft 382 kts 284°
2026-04-21 22:31 43.60799 -116.67961 23264 ft 387 kts 285°
2026-04-21 22:31 43.61766 -116.71447 23996 ft 390 kts 284°
2026-04-21 22:31 43.62707 -116.74919 24743 ft 393 kts 284°
2026-04-21 22:31 43.63673 -116.78463 25481 ft 397 kts 284°
2026-04-21 22:32 43.64653 -116.82036 26205 ft 400 kts 284°
2026-04-21 22:32 43.65639 -116.85645 26921 ft 403 kts 283°
2026-04-21 22:32 43.66628 -116.89279 27619 ft 406 kts 283°
2026-04-21 22:32 43.67625 -116.92950 28327 ft 410 kts 283°
2026-04-21 22:33 43.68632 -116.96654 29027 ft 413 kts 283°
2026-04-21 22:33 43.69646 -117.00381 29729 ft 417 kts 283°
2026-04-21 22:33 43.70665 -117.04146 30292 ft 420 kts 283°
2026-04-21 22:33 43.71693 -117.07945 30849 ft 424 kts 283°
2026-04-21 22:34 43.72778 -117.11766 31356 ft 430 kts 286°
2026-04-21 22:34 43.74000 -117.15580 31653 ft 440 kts 287°
2026-04-21 22:34 43.75246 -117.19520 31663 ft 450 kts 286°
2026-04-21 22:35 43.77770 -117.27574 31676 ft 471 kts 287°
2026-04-21 22:35 43.79097 -117.31806 31683 ft 488 kts 287°
2026-04-21 22:35 43.80462 -117.36134 31685 ft 489 kts 287°
2026-04-21 22:36 43.84433 -117.48866 31687 ft 472 kts 286°
2026-04-21 22:36 43.87003 -117.57088 31693 ft 463 kts 286°
2026-04-21 22:37 43.89871 -117.65073 31691 ft 461 kts 291°
2026-04-21 22:37 43.92803 -117.72906 31695 ft 454 kts 290°
2026-04-21 22:38 43.95715 -117.80665 31696 ft 454 kts 290°
2026-04-21 22:38 43.98629 -117.88446 31704 ft 455 kts 290°
2026-04-21 22:39 44.01548 -117.96240 31711 ft 455 kts 290°
2026-04-21 22:39 44.04462 -118.04061 31729 ft 456 kts 290°
2026-04-21 22:40 44.07377 -118.11898 31733 ft 457 kts 290°
2026-04-21 22:40 44.10295 -118.19767 31745 ft 458 kts 289°
2026-04-21 22:41 44.13212 -118.27657 31760 ft 459 kts 289°
2026-04-21 22:41 44.16130 -118.35566 31766 ft 459 kts 289°
2026-04-21 22:42 44.19041 -118.43487 31766 ft 459 kts 289°
2026-04-21 22:42 44.21951 -118.51426 31773 ft 460 kts 289°
2026-04-21 22:43 44.24858 -118.59375 31789 ft 460 kts 289°
2026-04-21 22:43 44.27760 -118.67340 31802 ft 460 kts 289°
2026-04-21 22:44 44.30655 -118.75306 31799 ft 459 kts 289°
2026-04-21 22:44 44.33508 -118.83169 31813 ft 456 kts 289°
2026-04-21 22:45 44.36354 -118.91060 31820 ft 454 kts 289°
2026-04-21 22:45 44.39191 -118.98918 31821 ft 452 kts 288°
2026-04-21 22:46 44.42011 -119.06776 31822 ft 452 kts 288°
2026-04-21 22:46 44.44831 -119.14646 31819 ft 453 kts 288°
2026-04-21 22:47 44.47646 -119.22527 31816 ft 453 kts 288°
2026-04-21 22:47 44.50459 -119.30425 31814 ft 453 kts 288°
2026-04-21 22:48 44.53268 -119.38332 31816 ft 453 kts 288°
2026-04-21 22:48 44.56071 -119.46251 31811 ft 454 kts 288°
2026-04-21 22:49 44.58873 -119.54180 31820 ft 454 kts 288°
2026-04-21 22:49 44.61668 -119.62127 31820 ft 454 kts 288°
2026-04-21 22:50 44.64303 -119.70146 31812 ft 445 kts 281°
2026-04-21 22:50 44.65667 -119.78403 31818 ft 432 kts 270°
2026-04-21 22:51 44.66624 -119.86752 31819 ft 433 kts 271°
2026-04-21 22:51 44.67565 -119.95099 31828 ft 432 kts 271°
2026-04-21 22:52 44.68502 -120.03437 31821 ft 431 kts 271°
2026-04-21 22:52 44.69432 -120.11753 31834 ft 431 kts 270°
2026-04-21 22:53 44.70353 -120.20072 31826 ft 430 kts 270°
2026-04-21 22:53 44.71265 -120.28374 31834 ft 430 kts 270°
2026-04-21 22:54 44.72179 -120.36685 31829 ft 430 kts 270°
2026-04-21 22:54 44.73085 -120.45019 31828 ft 431 kts 270°
2026-04-21 22:55 44.73973 -120.53315 31821 ft 432 kts 270°
2026-04-21 22:55 44.74877 -120.61660 31821 ft 432 kts 270°
2026-04-21 22:56 44.75751 -120.70015 31823 ft 431 kts 270°
2026-04-21 22:56 44.76640 -120.78352 31832 ft 430 kts 270°
2026-04-21 22:57 44.77355 -120.85269 31835 ft 430 kts 270°
2026-04-21 22:57 44.78239 -120.93584 31840 ft 429 kts 269°
2026-04-21 22:58 44.79098 -121.01896 31826 ft 429 kts 270°
2026-04-21 22:58 44.79944 -121.10192 31848 ft 428 kts 269°
2026-04-21 22:59 44.80794 -121.18480 31851 ft 428 kts 270°
2026-04-21 22:59 44.81629 -121.26768 31857 ft 428 kts 269°
2026-04-21 23:00 44.82462 -121.35072 31861 ft 428 kts 269°
2026-04-21 23:00 44.83290 -121.43370 31881 ft 428 kts 269°
2026-04-21 23:01 44.84108 -121.51666 31888 ft 427 kts 269°
2026-04-21 23:01 44.84924 -121.59948 31901 ft 426 kts 269°
2026-04-21 23:02 44.85728 -121.68219 31910 ft 426 kts 269°
2026-04-21 23:02 44.86528 -121.76490 31927 ft 425 kts 268°
2026-04-21 23:03 44.87317 -121.84758 31929 ft 426 kts 268°
2026-04-21 23:03 44.88110 -121.93032 31940 ft 425 kts 268°
2026-04-21 23:04 44.88885 -122.01308 31953 ft 426 kts 268°
2026-04-21 23:04 44.89666 -122.09548 31951 ft 427 kts 269°
2026-04-21 23:05 44.90070 -122.13708 31388 ft 430 kts 268°
2026-04-21 23:05 44.90600 -122.17912 29914 ft 441 kts 274°
2026-04-21 23:05 44.91529 -122.22108 28249 ft 451 kts 282°
2026-04-21 23:05 44.92788 -122.26155 26903 ft 452 kts 290°
2026-04-21 23:06 44.94384 -122.29999 25596 ft 455 kts 297°
2026-04-21 23:06 44.96296 -122.33572 24315 ft 457 kts 305°
2026-04-21 23:06 44.98495 -122.36802 23076 ft 456 kts 314°
2026-04-21 23:06 45.00935 -122.39635 21875 ft 452 kts 321°
2026-04-21 23:07 45.03474 -122.42225 20690 ft 446 kts 321°
2026-04-21 23:07 45.05959 -122.44800 19587 ft 439 kts 320°
2026-04-21 23:07 45.08404 -122.47354 18476 ft 435 kts 320°
2026-04-21 23:07 45.10826 -122.49874 17417 ft 428 kts 320°
2026-04-21 23:08 45.13175 -122.52287 17039 ft 404 kts 320°
2026-04-21 23:08 45.15374 -122.54552 16944 ft 377 kts 320°
2026-04-21 23:08 45.17420 -122.56678 16689 ft 358 kts 319°
2026-04-21 23:08 45.19410 -122.58783 15998 ft 356 kts 319°
2026-04-21 23:09 45.21392 -122.60851 15416 ft 351 kts 320°
2026-04-21 23:09 45.23353 -122.62878 14848 ft 347 kts 320°
2026-04-21 23:09 45.25286 -122.64895 14278 ft 343 kts 320°
2026-04-21 23:09 45.27196 -122.66888 13721 ft 339 kts 320°
2026-04-21 23:10 45.29078 -122.68874 13114 ft 334 kts 319°
2026-04-21 23:10 45.30544 -122.71334 12491 ft 322 kts 293°
2026-04-21 23:10 45.31108 -122.74309 11908 ft 307 kts 267°
2026-04-21 23:10 45.30723 -122.77184 11300 ft 291 kts 240°
2026-04-21 23:11 45.29598 -122.79491 10694 ft 282 kts 224°
2026-04-21 23:11 45.28261 -122.81507 10123 ft 279 kts 220°
2026-04-21 23:11 45.26891 -122.83458 9497 ft 279 kts 220°
2026-04-21 23:11 45.25515 -122.85378 8882 ft 277 kts 220°
2026-04-21 23:12 45.24138 -122.87275 8277 ft 275 kts 220°
2026-04-21 23:12 45.22703 -122.89027 7681 ft 269 kts 208°
2026-04-21 23:12 45.20944 -122.89735 7107 ft 263 kts 180°
2026-04-21 23:12 45.19201 -122.89085 6527 ft 262 kts 152°
2026-04-21 23:13 45.17725 -122.87570 5921 ft 263 kts 143°
2026-04-21 23:13 45.16332 -122.85883 5317 ft 264 kts 140°
2026-04-21 23:13 45.14965 -122.84132 4738 ft 265 kts 141°
2026-04-21 23:13 45.13659 -122.82282 4105 ft 269 kts 128°
2026-04-21 23:14 45.13090 -122.79856 4005 ft 265 kts 94°
2026-04-21 23:14 45.13508 -122.77349 4001 ft 265 kts 63°
2026-04-21 23:14 45.14687 -122.75356 4014 ft 265 kts 43°
2026-04-21 23:14 45.16072 -122.73635 4013 ft 265 kts 40°
2026-04-21 23:15 45.17476 -122.71944 3965 ft 266 kts 40°
2026-04-21 23:15 45.18903 -122.70232 3346 ft 272 kts 40°
2026-04-21 23:15 45.20330 -122.68500 2882 ft 268 kts 40°
2026-04-21 23:15 45.21741 -122.66792 2429 ft 265 kts 40°
2026-04-21 23:16 45.23139 -122.65108 2038 ft 260 kts 38°
2026-04-21 23:16 45.24730 -122.64202 2002 ft 240 kts
2026-04-21 23:16 45.26259 -122.64838 2003 ft 228 kts 322°
2026-04-21 23:16 45.27267 -122.66508 2014 ft 222 kts 304°
2026-04-21 23:17 45.28231 -122.68210 2012 ft 220 kts 314°
2026-04-21 23:17 45.29413 -122.69583 2018 ft 221 kts 324°
2026-04-21 23:17 45.30703 -122.70820 2014 ft 226 kts 324°
2026-04-21 23:17 45.31998 -122.72127 2017 ft 229 kts 322°
2026-04-21 23:18 45.33289 -122.73474 2018 ft 231 kts 322°
2026-04-21 23:18 45.34594 -122.74810 2028 ft 231 kts 322°
2026-04-21 23:18 45.35894 -122.76138 2041 ft 223 kts 322°
2026-04-21 23:18 45.37048 -122.77330 2027 ft 190 kts 321°
2026-04-21 23:19 45.38102 -122.78420 2013 ft 184 kts 322°
2026-04-21 23:19 45.39106 -122.79443 2014 ft 172 kts 322°
2026-04-21 23:19 45.40048 -122.80404 2011 ft 169 kts 322°
2026-04-21 23:19 45.41035 -122.81437 2014 ft 182 kts 321°
2026-04-21 23:20 45.42048 -122.82487 1997 ft 178 kts 322°
2026-04-21 23:20 45.43046 -122.83493 1995 ft 174 kts 323°
2026-04-21 23:20 45.44018 -122.84489 1986 ft 170 kts 321°
2026-04-21 23:20 45.44950 -122.85477 1997 ft 165 kts 321°
2026-04-21 23:21 45.45879 -122.86442 2000 ft 164 kts 322°
2026-04-21 23:21 45.46805 -122.87389 1935 ft 160 kts 322°
2026-04-21 23:21 45.47642 -122.88261 1743 ft 142 kts 321°
2026-04-21 23:21 45.48414 -122.89072 1541 ft 134 kts 322°
2026-04-21 23:22 45.49159 -122.89854 1334 ft 132 kts 322°
2026-04-21 23:22 45.49896 -122.90626 1136 ft 131 kts 322°
2026-04-21 23:22 45.50622 -122.91395 946 ft 129 kts 324°
2026-04-21 23:22 45.51350 -122.92143 762 ft 129 kts 324°
2026-04-21 23:23 45.52070 -122.92891 577 ft 128 kts 320°
2026-04-21 23:23 45.52760 -122.93661 431 ft 124 kts 322°
2026-04-21 23:23 45.53461 -122.94377 256 ft 121 kts 321°
2026-04-21 23:23 45.54069 -122.95018 207 ft 87 kts 314°
2026-04-21 23:24 45.54394 -122.95372 213 ft 29 kts 307°
2026-04-21 23:24 45.54439 -122.95518 208 ft 4 kts 289°
2026-04-21 23:24 45.54423 -122.95558 204 ft 3 kts 181°
2026-04-21 23:24 45.54422 -122.95558 204 ft 0 kts 180°
2026-04-21 23:25 45.54416 -122.95558 202 ft 5 kts 177°
2026-04-21 23:26 45.54365 -122.95519 202 ft 11 kts 146°
2026-04-21 23:26 45.54294 -122.95496 205 ft 13 kts 229°
2026-04-21 23:26 45.54262 -122.95565 202 ft 8 kts 236°
2026-04-21 23:26 45.54263 -122.95586 201 ft 0 kts 300°
2026-04-21 23:28 45.54265 -122.95587 201 ft 1 kts 326°
2026-04-21 23:28 45.54287 -122.95594 204 ft 6 kts 330°
2026-04-21 23:28 45.54292 -122.95602 204 ft 1 kts 313°
2026-04-21 23:29 45.54303 -122.95617 203 ft 1 kts 317°
2026-04-21 23:29 45.54304 -122.95618 203 ft 1 kts 317°
2026-04-21 23:29 45.54306 -122.95620 200 ft 0 kts 317°